CEB997 RPLL-RPMR

Flight info

Callsign CEB997
Flight time N/A
Altitude 35000
Route RDVXVERDE/13 VERDE A461 SAJ W3 IOO B472 COT W19 MELBY MELBY3P
Aircraft A321/M-SDE3FGHIRWY/LB1

Departure

Time N/A
Airport Ninoy Aquino International Airport (RPLL)

Arrival

Time 2026-05-04 14:46
Airport General Santos International Airport (RPMR)
Time Latitude Longitude Altitude Speed Heading
2026-05-04 14:20 7.71238 123.95642 35021 ft 468 kts 154°
2026-05-04 14:20 7.65343 123.98381 35010 ft 468 kts 154°
2026-05-04 14:21 7.56426 124.02522 34985 ft 468 kts 154°
2026-05-04 14:21 7.50507 124.05268 34964 ft 467 kts 154°
2026-05-04 14:22 7.44595 124.08010 34954 ft 467 kts 154°
2026-05-04 14:22 7.38671 124.10759 34952 ft 467 kts 154°
2026-05-04 14:23 7.29889 124.14829 34670 ft 451 kts 154°
2026-05-04 14:23 7.27038 124.16149 34306 ft 442 kts 154°
2026-05-04 14:24 7.24258 124.17437 33757 ft 438 kts 154°
2026-05-04 14:24 7.21514 124.18735 33110 ft 436 kts 153°
2026-05-04 14:24 7.18812 124.20174 32329 ft 437 kts 149°
2026-05-04 14:24 7.16219 124.21746 31529 ft 439 kts 146°
2026-05-04 14:25 7.13694 124.23476 30719 ft 441 kts 143°
2026-05-04 14:25 7.08859 124.27294 29375 ft 437 kts 140°
2026-05-04 14:25 7.06487 124.29221 28859 ft 432 kts 140°
2026-05-04 14:26 7.04174 124.31101 28319 ft 428 kts 140°
2026-05-04 14:26 7.01874 124.32967 27766 ft 425 kts 139°
2026-05-04 14:26 6.99569 124.34836 27202 ft 421 kts 139°
2026-05-04 14:26 6.97298 124.36676 26635 ft 418 kts 139°
2026-05-04 14:27 6.95038 124.38507 26268 ft 414 kts 139°
2026-05-04 14:27 6.92800 124.40323 26025 ft 416 kts 139°
2026-05-04 14:27 6.92039 124.40939 25943 ft 416 kts 139°
2026-05-04 14:27 6.91286 124.41550 25863 ft 416 kts 139°
2026-05-04 14:28 6.81722 124.49291 24794 ft 411 kts 139°
2026-05-04 14:28 6.79479 124.51105 24489 ft 410 kts 139°
2026-05-04 14:29 6.75054 124.54684 23623 ft 404 kts 139°
2026-05-04 14:29 6.70700 124.58204 22690 ft 398 kts 139°
2026-05-04 14:30 6.68536 124.59954 22210 ft 395 kts 139°
2026-05-04 14:30 6.66393 124.61681 21749 ft 393 kts 139°
2026-05-04 14:30 6.62086 124.64963 20872 ft 387 kts 140°
2026-05-04 14:31 6.59908 124.66604 20430 ft 384 kts 140°
2026-05-04 14:31 6.55670 124.69807 19544 ft 379 kts 140°
2026-05-04 14:32 6.51463 124.72995 18563 ft 376 kts 140°
2026-05-04 14:32 6.49379 124.74576 17752 ft 385 kts 140°
2026-05-04 14:32 6.47195 124.76233 16850 ft 394 kts 140°
2026-05-04 14:32 6.44979 124.77914 15920 ft 403 kts 141°
2026-05-04 14:33 6.42723 124.79626 14947 ft 412 kts 141°
2026-05-04 14:33 6.40424 124.81389 13990 ft 418 kts 139°
2026-05-04 14:33 6.38333 124.83400 13265 ft 414 kts 130°
2026-05-04 14:33 6.36573 124.85654 12639 ft 408 kts 124°
2026-05-04 14:34 6.34943 124.87990 11979 ft 404 kts 123°
2026-05-04 14:34 6.33347 124.90318 11302 ft 400 kts 123°
2026-05-04 14:34 6.31791 124.92580 10637 ft 396 kts 123°
2026-05-04 14:34 6.30154 124.94801 9955 ft 392 kts 127°
2026-05-04 14:35 6.28429 124.96889 9468 ft 383 kts 128°
2026-05-04 14:35 6.26742 124.98891 9325 ft 364 kts 128°
2026-05-04 14:35 6.25143 125.00783 9195 ft 348 kts 128°
2026-05-04 14:35 6.23597 125.02614 9062 ft 332 kts 128°
2026-05-04 14:36 6.22136 125.04348 8936 ft 317 kts 128°
2026-05-04 14:36 6.20727 125.06023 8806 ft 304 kts 128°
2026-05-04 14:36 6.19393 125.07610 8676 ft 292 kts 128°
2026-05-04 14:36 6.18103 125.09145 8553 ft 282 kts 128°
2026-05-04 14:37 6.16829 125.10659 8430 ft 281 kts 128°
2026-05-04 14:37 6.15568 125.12160 8310 ft 281 kts 128°
2026-05-04 14:37 6.14302 125.13666 8191 ft 281 kts 128°
2026-05-04 14:37 6.13050 125.15154 8071 ft 280 kts 128°
2026-05-04 14:38 6.11784 125.16659 7945 ft 280 kts 128°
2026-05-04 14:38 6.10335 125.17992 7769 ft 283 kts 148°
2026-05-04 14:38 6.08463 125.18642 7594 ft 286 kts 169°
2026-05-04 14:38 6.06485 125.18883 7393 ft 286 kts 171°
2026-05-04 14:39 6.04489 125.19099 7099 ft 285 kts 171°
2026-05-04 14:39 6.02499 125.19319 6776 ft 284 kts 171°
2026-05-04 14:39 6.00557 125.19545 6437 ft 282 kts 171°
2026-05-04 14:40 5.96669 125.20011 5737 ft 278 kts 171°
2026-05-04 14:40 5.94756 125.20245 5399 ft 276 kts 171°
2026-05-04 14:40 5.92825 125.20480 5053 ft 275 kts 171°
2026-05-04 14:40 5.90924 125.20654 4690 ft 275 kts 180°
2026-05-04 14:41 5.89102 125.20077 4309 ft 277 kts 216°
2026-05-04 14:41 5.87968 125.18623 4204 ft 264 kts 250°
2026-05-04 14:41 5.87519 125.15200 4126 ft 235 kts 266°
2026-05-04 14:42 5.87801 125.12047 3852 ft 215 kts 308°
2026-05-04 14:42 5.88972 125.11293 3667 ft 195 kts 352°
2026-05-04 14:42 5.90264 125.11248 3546 ft 179 kts
2026-05-04 14:43 5.91474 125.11217 3390 ft 168 kts 359°
2026-05-04 14:43 5.92631 125.11145 3119 ft 165 kts 357°
2026-05-04 14:43 5.93757 125.11047 2858 ft 158 kts 356°
2026-05-04 14:43 5.94831 125.10934 2625 ft 153 kts 355°
2026-05-04 14:44 5.95903 125.10814 2448 ft 154 kts 355°
2026-05-04 14:44 5.96968 125.10689 2232 ft 152 kts 354°
2026-05-04 14:44 5.98022 125.10561 2013 ft 151 kts 354°
2026-05-04 14:44 5.99070 125.10435 1796 ft 150 kts 354°
2026-05-04 14:45 6.00097 125.10311 1577 ft 150 kts 354°
2026-05-04 14:45 6.01150 125.10181 1352 ft 149 kts 354°
2026-05-04 14:45 6.02183 125.10054 1094 ft 150 kts 354°
2026-05-04 14:45 6.03216 125.09927 816 ft 148 kts 355°
2026-05-04 14:46 6.04231 125.09806 607 ft 145 kts 355°
2026-05-04 14:46 6.05200 125.09693 537 ft 126 kts 352°
2026-05-04 14:46 6.05772 125.09622 536 ft 18 kts 353°
2026-05-04 14:46 6.05816 125.09647 536 ft 6 kts 82°
2026-05-04 14:47 6.05822 125.09702 536 ft 9 kts 84°
2026-05-04 14:47 6.05832 125.09784 536 ft 11 kts 75°
2026-05-04 14:47 6.05829 125.09861 535 ft 11 kts 141°
2026-05-04 14:47 6.05765 125.09885 535 ft 9 kts 110°
2026-05-04 14:48 6.05772 125.09925 535 ft 6 kts 83°
2026-05-04 14:48 6.05776 125.09958 535 ft 2 kts 83°
2026-05-04 14:48 6.05776 125.09956 535 ft 0 kts 82°